パンスターズ彗星

C/2017 M3 ( PanSTARRS )

English version
Home page
Updated on August 28, 2018

---------------------------------------------------------------------

・ プロフィール

発見日 2017年6月20日
発見光度 21.1等
発見者 Pan-STARRS 1 telescope (Haleakala)

・ 軌道要素

Epoch 2017 May 7.0 TT = JDT 2457880.5
T 2017 Apr. 28.15732 TT                                 MPCW
q   4.6561093            (2000.0)            P               Q
z  +0.0057522      Peri.  110.30885     -0.36920963     -0.92170393
 +/-0.0000025      Node     6.99726     -0.21826558     -0.03840075
e   0.9732170      Incl.   77.50712     +0.90335175     -0.38598866
From 40 observations 2017 June 20-2018 Apr. 23, mean residual 0".3.

・ 光度変化

        m1 = 10.5 + 5 logΔ + 10.0 log r

---------------------------------------------------------------------

軌道要素はM.P.E.C. 2018-H105に掲載されたものです。
光度グラフはComet for Windowsで作成したものです。

---------------------------------------------------------------------

Copyright(C) Seiichi Yoshida (comet@aerith.net). All rights reserved.